Regional Weather Roundup
Issued by NWS

Home | Current Version | Previous Version | Graphics & Text | Print | Product List | Glossary Off
Versions: 1 2 3 4 5 6 7 8 9 10 11 12 13 14 15 16 17 18 19 20 21 22 23 24 25 26 27 28 29 30 31 32 33 34 35 36 37 38 39 40 41 42 43 44 45 46 47 48 49 50

109
ASUS43 KMKX 291600
RWRWI

WISCONSIN REGIONAL WEATHER ROUNDUP
NATIONAL WEATHER SERVICE MILWAUKEE/SULLIVAN WI
1100 AM CDT FRI APR 29 2016

NOTE: "FAIR" INDICATES FEW OR NO CLOUDS BELOW 12,000 FEET WITH NO
SIGNIFICANT WEATHER AND/OR OBSTRUCTIONS TO VISIBILITY.

WIZ001-002-006>008-014>016-023>028-291700-
NORTHWEST WISCONSIN

CITY           SKY/WX    TMP DP  RH WIND       PRES   REMARKS
SUPERIOR ARPT  SUNNY     47  30  51 NE10      30.21S
ASHLAND        SUNNY     49  34  56 NE9       30.20F
HAYWARD        SUNNY     49  26  41 NE7       30.16F
SIREN          SUNNY     48  28  46 NE5       30.18F
CUMBERLAND     SUNNY     45  28  53 NE7       30.16F
RICE LAKE      SUNNY     47  32  54 N7        30.17F
CHETEK         NOT AVBL
LADYSMITH      SUNNY     49  34  55 NW5       30.16F
EAU CLAIRE     MOSUNNY   49  38  65 VRB6      30.14F
MENOMONIE      MOSUNNY   45  45 100 N3        30.16F
NEW RICHMOND   MOSUNNY   45  36  69 N7        30.16F
OSCEOLA        SUNNY     46  34  62 N6        30.20F
$$

WIZ003>005-009-010-017-018-291700-
NORTH CENTRAL WISCONSIN

CITY           SKY/WX    TMP DP  RH WIND       PRES   REMARKS
MANITOWISH WTR PTSUNNY   48  33  57 E5        30.14S
ARBOR VITAE    NOT AVBL
WOODRUFF       NOT AVBL
RHINELANDER    CLOUDY    49  33  54 VRB5      30.14F
EAGLE RIVER    MOSUNNY   47  30  51 NE7       30.14S
LAND O LAKES   CLOUDY    46  33  58 CALM      30.15F
PHILLIPS       SUNNY     47  34  60 CALM      30.14F
TOMAHAWK       CLOUDY    46  33  60 N8        30.15S
MEDFORD        CLOUDY    43  38  83 N6        30.14S
MERRILL        CLOUDY    45  35  67 NE5       30.15S
$$

WIZ029-030-035-036-043>047-291700-
CENTRAL WISCONSIN

CITY           SKY/WX    TMP DP  RH WIND       PRES   REMARKS
WAUSAU         CLOUDY    49  35  58 NE7       30.12F
MOSINEE        CLOUDY    45  36  70 NE6       30.15S
MARSHFIELD     MOSUNNY   49  37  63 VRB7      30.10F
STEVENS POINT  CLOUDY    44  33  64 N5        30.15S
WAUPACA        MOSUNNY   50  32  50 NE7       30.14R
WAUTOMA        MOSUNNY   49  34  56 NE10G21   30.11
WISC RAPIDS    CLOUDY    49  36  61 N12       30.12F
CAMP DOUGLAS   CLOUDY    46  46 100 N10       30.11F
$$

WIZ011>013-019>022-031-037>040-048>050-291700-
NORTHEAST WISCONSIN

CITY           SKY/WX    TMP DP  RH WIND       PRES   REMARKS
ANTIGO         CLOUDY    46  35  63 CALM      30.13S
SHAWANO        PTSUNNY   51  35  55 NE7       30.14S
OCONTO         CLOUDY    46  32  57 E9        30.14S
STURGEON BAY   CLOUDY    48  30  49 E9        30.16R
GREEN BAY      MOSUNNY   49  36  61 NE12      30.14R
MANITOWOC      NOT AVBL
APPLETON       PTSUNNY   46  34  61 NE9       30.10S
CLINTONVILLE   CLOUDY    48  32  53 N8        30.14R
OSHKOSH        PTSUNNY   48  34  58 NE15      30.10F
$$

WIZ032>034-041-042-053>061-291700-
SOUTHWEST WISCONSIN

CITY           SKY/WX    TMP DP  RH WIND       PRES   REMARKS
LA CROSSE      CLOUDY    48  36  63 N10       30.13S
SPARTA         NOT AVBL
VIROQUA        CLOUDY    45  39  79 NE13      30.10F
BOSCOBEL       PTSUNNY   49  36  61 N8        30.12R
PRAIRIE DU CHI CLOUDY    46  36  68 N6        30.12R
PLATTEVILLE    CLOUDY    46  40  81 N12       30.10R
$$

WIZ056-057-062-063-064-067-068-291700-
SOUTH CENTRAL WISCONSIN

CITY           SKY/WX    TMP DP  RH WIND       PRES   REMARKS
REEDSBURG      CLOUDY    44  37  76 N7        30.11F
BARABOO/DELLS  NOT AVBL
LONE ROCK      NOT AVBL
MINERAL POINT  CLOUDY    45  37  76 N10       30.10R
MADISON        CLOUDY    46  38  73 NE12      30.12R
MIDDLETON      CLOUDY    46  39  77 NE14      30.11R
WATERTOWN      CLOUDY    42  37  80 NE7       30.11R
MONROE         CLOUDY    45  37  76 N10       30.10R
JANESVILLE     CLOUDY    46  37  71 NE14      30.11R
$$

WIZ051-052-058>065-066-070>072-291700-
SOUTHEAST WISCONSIN

CITY           SKY/WX    TMP DP  RH WIND       PRES   REMARKS
MILWAUKEE      CLOUDY    41  36  82 NE9       30.14R
WAUKESHA       CLOUDY    39  36  87 NE7       30.14R WCI  34
MILWAUKEE/TIMM CLOUDY    39  36  87 NE7       30.12R WCI  34
RACINE         CLOUDY    44  38  79 NE12      30.15R
BURLINGTON     CLOUDY    42  37  82 NE9       30.11R
KENOSHA        CLOUDY    43  38  82 N10       30.13R
FOND DU LAC    MOSUNNY   49  37  63 NE12      30.12S
SHEBOYGAN      CLOUDY    47  34  60 NE16      30.11R
WEST BEND      CLOUDY    43  36  75 NE8       30.11R
JUNEAU         CLOUDY    43  35  72 NE9       30.11S
$$

LSZ147-162-291700-
LAKE SUPERIOR

STATION/POSITION TIME  TEMP    WIND        PRES    WAVE
                       AIR SEA DIR/SP/G            HT/PER
                 (UTC) (F)     (DEG/KT/KT) (MB)    (FT/S)
W MID LAKE BUOY  1450   38 36   30/  8/  8 1023.5R   1
DEVILS ISLAND    1500   38      50/  6/  7 1024.1R
SAXON HARBOR     1500   38     320/  4/  5 1022.7R
$$

LMZ867-665-643>646-291700-
LAKE MICHIGAN

STATION/POSITION TIME  TEMP    WIND        PRES    WAVE
                       AIR SEA DIR/SP/G            HT/PER
                 (UTC) (F)     (DEG/KT/KT) (MB)    (FT/S)
CHAMBERS ISLAND  1500   41     360/ 10/ 11 1021.3
N MID LAKE BUOY  1450   39 39  350/ 10/ 12 1021.0R   0
NORTHPORT PIER   1500   40     320/  7/  8 1021.0F
ALGOMA LAKESHORE 1515           40/ 12/ 16   N/A
KEWAUNEE LAKESHO 1500   43      30/ 12/ 14 1019.2F
SHEBOYGAN LAKESH 1500   40      20/ 11/ 11 1020.3F
PORT WASHINGTON  1500   42      40/  9/ 13 1020.7R
S MID LAKE BUOY  1450   40 40   30/ 10/ 12 1018.7F   1/ 3
KENOSHA   LAKESH 1500   41      20/ 16/ 19 1019.0R
$$

TC  - TEMPERATURE IN CELSIUS
VSB - VISIBILITY IN STATUTE MILES
WCI - WIND CHILL INDEX
HX  - HEAT INDEX





USA.gov is the U.S. government's official web portal to all federal, state and local government web resources and services.